Location: Carr Mill
(33.2054°N, 85.9439°W)
Time: 15:19:49
(UTC+00:00)

ISS - Pass Details

Date: 24 June 2021
Orbit: 419 x 421 km, 51.6° (Epoch: 02 August)

Event Time Altitude Azimuth Distance (km) Brightness Sun altitude
Exits shadow 09:10:59 15° 167° (SSE) 1,238 -1.7 -15.3°
Maximum altitude 09:12:41 21° 128° (SE) 1,004 -1.7 -15.0°
Drops below altitude 10° 09:15:16 10° 78° (ENE) 1,495 0.0 -14.6°
Sets 09:17:42 0° 61° (ENE) 2,362 1.8 -14.3°
